OBJECT BP, 68477

Orbit data source: Space-Track

You're viewing an Uncataloged Satellite

Recently launched and/or uncataloged satellites may have evolving metadata. Metadata may include but not limited to: Owner, Maufacturer, Bus, Motor, and Mission.

OBJECT BP, 68477 is a satellite in SSO that was launched on Mon, 30 Mar 2026 UTC via an FALCON 9 launch vehicle from the Air Force Western Test Range (AFWTR). Unknown objects in Earth's orbit typically refer to objects detected orbiting the Earth but have not yet been identified or cataloged. These objects could be anything from previously untracked satellites, spent rocket stages, debris from satellite collisions, or even natural meteoroids temporarily captured by Earth's gravity.

Loading next visibility...
Identifier
68477, 2026-067BP
Orbit
SSO
Country
Flag of TBDTBD
Related business
None
Manufacturer
Unknown
Mission
Operational spacecraft
Bus & Motor
Unknown
Mass
Unknown
Launch date (UTC)
2026-03-30 (1 month ago)
Launch vehicle
FALCON 9
Launch site
Air Force Western Test Range (AFWTR)
Object type
Unknown
Shape & HBR
Unknown shape, 1.1 m
Radar Cross Section
RCS unknown

Expand to show TLE details & history
Last TLE update: 10 hours ago

TLE from 10 hours ago
0 OBJECT BP
1 68477U 26067BP  26127.14770312  .00007056  00000-0  71258-3 0  9990
2 68477  97.7508  85.9801 0004193 174.9620 185.1641 14.91352933  5019
Epoch: 2026-05-07T03:32Z
TLE epoch observation values (Epoch: 2026-05-07T03:32:41.549Z)
Latitude
-0.00008°
Longitude
167.80898°
Altitude
599.669 km
Speed
7.558 km/s
True Right ascension
05h 43m 55s
True Declination
0° 00' 00"
Sunlit
Object was in daylight at epoch
Visualization orbit readout
Latitude
Unknown
Longitude
Unknown
Altitude
Unknown
Speed
Unknown
Apparent Right ascension
Unknown
Apparent Declination
Unknown
Sunlit
N/A
Visualization observer readout
Local Sidereal Time
22:03:35
Azimuth
Unknown
Elevation
Unknown
Doppler factor
Unknown
Orbital elements
Apogee altitude
593.657 km
Perigee altitude
587.813 km
Semi-major axis
6,968.872 km
Eccentricity
0.00042
Inclination
97.7508°
RAAN
85.9801°
Arg. of periapsis
174.962°
True anomaly
185.15978°
Mean anomaly
185.1641°
Eccentric anomaly
185.16194°
Mean motion
3.73078 °/min
Orbital period
96.49 mins
BSTAR
0.00071258
Loading maneuver chart data...
Computing Atmospheric mass density...
Loading historical data...
Loading historical data...
Loading historical data...
Loading historical data...
Loading historical data...
Loading historical data...
Loading historical data...

Documentation

Showing up to 5 results
|